{"data":{"norad_id":64515,"epoch":"2026-05-24T20:06:14.228352Z","epoch_age_seconds":99546,"freshness":"FRESH","line1":"1 64515U 25134R   26144.83766468  .00001906  00000+0  27929-3 0  9998","line2":"2 64515  51.9002 193.9472 0001558  72.6616 287.4517 14.79885851 52223","mean_motion":14.79885851,"eccentricity":0.0001558,"inclination_deg":51.9002,"raan_deg":193.9472,"arg_perigee_deg":72.6616,"mean_anomaly_deg":287.4517,"bstar":0.00027929,"rev_number":5222,"period_min":97.304802193152,"perigee_km":628.5926522509,"apogee_km":630.77628942121,"semimajor_km":7007.8214708361,"source":"CELESTRAK","updated_at":"2026-05-25T13:38:04.575268Z"}}